[[{"header":{"parameterUnit":"m.s-1","parameterCategory":1,"la1":30.2991,"la2":30.254,"lo1":-89.0895,"lo2":-89.0444,"dy":0.0017,"dx":0.0017,"nx":28,"ny":28,"refTime":"2023-09-03T21:00:00:Z","depth":0,"parameterNumber":2,"parameterNumberName":"U-component_of_WINDS"},"data":[0,0,0,0,0,0,0,0,0,0,0,0,0,0,0,0,0,0,0,0,0,0,0,0,0,0,0,0,0,0,0,0,0,0,0,0,0,0,0,0,0,0,0,0,0,0,0,0,0,0,0,0,0,0,0,0,0,0,-3.8086,-3.8087,0,-3.8172,-3.8173,-3.8174,-3.8136,-3.8134,-3.8132,-3.813,-3.8218,-3.8222,-3.8226,0,0,0,0,0,0,0,0,0,0,0,0,0,-3.7887,-3.7891,-3.8085,-3.8087,-3.8088,-3.8172,-3.8173,-3.8174,-3.8137,-3.8134,-3.8132,-3.8129,-3.8216,-3.8221,-3.8226,0,0,0,0,0,0,0,0,0,0,0,0,0,-3.7973,-3.7892,-3.8085,-3.8079,-3.808,-3.8172,-3.8173,-3.8175,-3.8137,-3.8134,-3.8131,-3.8128,-3.8215,-3.8221,-3.8227,-3.833,0,0,-3.8247,-3.825,0,0,0,0,0,0,0,0,-3.7968,-3.798,-3.8079,-3.808,-3.808,-3.814,-3.8135,-3.8227,-3.8138,-3.8115,-3.813,-3.8127,-3.8194,-3.8202,-3.8225,-3.8334,-3.8338,-3.8247,-3.8251,-3.8254,-3.8256,0,0,0,0,0,0,0,-3.7962,-3.7976,-3.812,-3.808,-3.8081,-3.8072,-3.808,-3.8152,-3.8171,-3.8117,-3.8115,-3.8125,-3.8194,-3.8219,-3.8227,-3.8339,-3.8247,-3.8253,-3.8257,-3.8259,-3.8535,-3.8538,0,0,0,0,0,0,-3.7956,-3.7972,-3.8117,-3.8122,-3.8015,-3.8078,-3.8088,-3.8124,-3.8171,-3.8175,-3.8128,-3.8123,-3.821,-3.822,-3.823,-3.8352,-3.8254,-3.826,-3.8264,-3.8532,-3.8536,-3.854,0,0,0,0,0,0,-3.7952,-3.797,-3.8113,-3.8046,-3.8064,-3.8085,-3.8126,-3.8128,-3.8153,-3.8179,-3.8182,-3.815,-3.8208,-3.8221,-3.8305,-3.8355,-3.8263,-3.8269,-3.8528,-3.8533,-3.8538,-3.8598,0,0,0,0,0,0,-3.7947,-3.7969,-3.8008,-3.8048,-3.8068,-3.8188,-3.8129,-3.8132,-3.8164,-3.8159,-3.8201,-3.8204,-3.8206,-3.8296,-3.8312,-3.8362,-3.8274,-3.8523,-3.853,-3.8536,-3.8592,-3.8605,-3.8616,0,0,0,0,0,-3.794,-3.8022,-3.801,-3.8028,-3.8118,-3.8191,-3.8202,-3.8203,-3.8168,-3.8208,-3.8225,-3.8203,-3.8347,-3.8305,-3.8322,-3.8375,-3.852,-3.8528,-3.8536,-3.8586,-3.8602,-3.8616,0,0,0,0,0,0,-3.7987,-3.8027,-3.8015,-3.8112,-3.8148,-3.8184,-3.8234,-3.822,-3.8267,-3.826,-3.8258,-3.8268,-3.8355,-3.8374,-3.8326,-3.8477,-3.8428,-3.844,-3.8461,-3.8476,-3.8488,-3.8481,-3.8279,0,0,0,0,0,-3.8009,-3.8066,-3.8097,-3.818,-3.8199,-3.8213,-3.8245,-3.8243,-3.828,-3.8295,-3.8318,-3.8355,-3.8408,-3.8444,-3.8494,-3.8595,-3.8603,-3.864,-3.8652,-3.8662,-3.8671,-3.8725,-3.8741,-3.8565,-3.8565,-3.8565,0,0,-3.8055,-3.8083,-3.8119,-3.819,-3.8218,-3.8275,-3.8227,-3.829,-3.8332,-3.8305,-3.8385,-3.8404,-3.8445,-3.8537,-3.8579,-3.8555,-3.8722,-3.8672,-3.8679,-3.8684,-3.8735,-3.8751,-3.8766,-3.8571,-3.857,-3.8569,0,0,-3.8167,-3.8195,-3.8266,-3.8295,-3.8338,-3.8347,-3.8364,-3.8403,-3.8414,-3.8495,-3.8475,-3.8526,-3.8618,-3.8648,-3.8675,-3.8798,-3.878,-3.8815,-3.8877,-3.8929,-3.8943,-3.8955,-3.8998,-3.9013,-3.8825,-3.8825,-3.8825,0,-3.8218,-3.8304,-3.8304,-3.8369,-3.84,-3.8379,-3.845,-3.8478,-3.8536,-3.8558,-3.8531,-3.8646,-3.8672,-3.877,-3.88,-3.8824,-3.8842,-3.8809,-3.8941,-3.8954,-3.8965,-3.9005,-3.9022,-3.8829,-3.8828,-3.8828,-3.8828,0,-3.8364,-3.8424,-3.8477,-3.8533,-3.857,-3.8638,-3.8648,-3.8686,-3.868,-3.8692,-3.8774,-3.8805,-3.8861,-3.8885,-3.888,-3.8983,-3.8967,-3.8941,-3.8892,-3.8986,-3.9023,-3.9039,-3.8834,-3.8833,-3.8832,-3.8831,0,0,-3.8508,-3.8563,-3.8582,-3.8606,-3.8652,-3.8698,-3.8765,-3.882,-3.8852,-3.8893,-3.8948,-3.9026,-3.9003,-3.9034,-3.9032,-3.9078,-3.9172,-3.9046,-3.9047,-3.9067,-3.9285,-3.9303,-3.9321,-3.9161,-3.9164,-3.9166,-3.9281,0,-3.8622,-3.8739,-3.8741,-3.8848,-3.8903,-3.8883,-3.8941,-3.8975,-3.8988,-3.9037,-3.9051,-3.9106,-3.9071,-3.909,-3.9135,-3.9151,-3.9215,-3.9143,-3.9211,-3.9213,-3.9199,-3.9341,-3.9361,-3.9468,-3.9296,-3.9299,-3.9301,0,-3.8771,-3.8816,-3.8928,-3.8965,-3.8988,-3.904,-3.909,-3.9137,-3.9175,-3.9182,-3.9216,-3.9208,-3.9275,-3.9225,-3.9318,-3.9268,-3.9296,-3.9309,-3.9313,-3.9318,-3.9261,-3.9349,-3.9502,-3.9518,-3.9324,-3.9323,-3.9321,0,-3.8862,-3.8951,-3.903,-3.9051,-3.9097,-3.9134,-3.9154,-3.9189,-3.9222,-3.9266,-3.9287,-3.9338,-3.9366,-3.9406,-3.9411,-3.9375,-3.9503,-3.9454,-3.9509,-3.9509,-3.9536,-3.9534,-3.9695,-3.9557,-3.9557,-3.9557,-3.9556,0,-3.8989,-3.9058,-3.9071,-3.9119,-3.9196,-3.9198,-3.9274,-3.9291,-3.9322,-3.9373,-3.936,-3.9407,-3.9412,-3.9462,-3.9466,-3.9541,-3.9554,-3.956,-3.956,-3.9561,-3.956,-3.9578,-3.957,-3.9561,-3.956,-3.9559,-3.9558,0,-3.9103,-3.9115,-3.9199,-3.9235,-3.9246,-3.9301,-3.9331,-3.9377,-3.9389,-3.9453,-3.9469,-3.9487,-3.9544,-3.9554,-3.9621,-3.9624,-3.9714,-3.9707,-3.9701,-3.9699,-3.9753,-3.9747,-3.993,-3.9953,-3.9802,-3.9803,-3.9804,0,-3.9183,-3.9236,-3.9277,-3.931,-3.9333,-3.9386,-3.9419,-3.9423,-3.9458,-3.9505,-3.9545,-3.9601,-3.9645,-3.9738,-3.9757,-3.9808,-3.9801,-3.9862,-3.9809,-3.9807,-3.9801,-3.9797,-3.9801,-3.9872,-3.9873,-3.9875,-3.9876,0,-3.9322,-3.9325,-3.9373,-3.9424,-3.9464,-3.9504,-3.9542,-3.9569,-3.9578,-3.9618,-3.9676,-3.9711,-3.9779,-3.9835,-3.9885,-3.9906,-3.9892,-3.9892,-3.9908,-3.9908,-3.9901,-3.9904,-3.9727,-3.9888,-3.9887,-3.9886,-3.9885,-3.9885,-3.942,-3.9466,-3.9502,-3.9556,-3.9585,-3.962,-3.9665,-3.9682,-3.9731,-3.9787,-3.9786,-3.985,-3.9886,-3.9952,-3.9977,-4.0026,-4.0006,-4.0029,-4.0034,-4.0039,-4.0044,-3.9895,-4.0036,-4.0035,-4.0035,-4.0035,-4.0034,0,-3.9557,-3.958,-3.9629,-3.9682,-3.9725,-3.9709,-3.9749,-3.9786,-3.9842,-3.9877,-3.9921,-3.9987,-4.0041,-4.0064,-4.0117,-4.0152,-4.0147,-4.0165,-4.0162,-4.0167,-4.0059,-4.004,-4.0168,-4.0168,-4.0168,-4.0168,-4.0168,-4.0168,-3.9634,-3.9709,-3.9717,-3.9806,-3.9828,-3.989,-3.9914,-3.9947,-3.9974,-4.0049,-4.0093,-4.0108,-4.0138,-4.0193,-4.0241,-4.0246,-4.0265,-4.0287,-4.0289,-4.0188,-4.0174,-4.0161,-4.0143,-4.0291,-4.0291,-4.0392,-4.0393,-4.0394]},{"header":{"parameterUnit":"m.s-1","parameterCategory":1,"la1":30.2991,"la2":30.254,"lo1":-89.0895,"lo2":-89.0444,"dy":0.0017,"dx":0.0017,"nx":28,"ny":28,"refTime":"2023-09-03T21:00:00:Z","depth":0,"parameterNumber":3,"parameterNumberName":"V-component_of_WINDS"},"data":[0,0,0,0,0,0,0,0,0,0,0,0,0,0,0,0,0,0,0,0,0,0,0,0,0,0,0,0,0,0,0,0,0,0,0,0,0,0,0,0,0,0,0,0,0,0,0,0,0,0,0,0,0,0,0,0,0,0,4.1346,4.1347,0,4.1396,4.1396,4.1397,4.1362,4.136,4.1358,4.1357,4.1404,4.1406,4.1409,0,0,0,0,0,0,0,0,0,0,0,0,0,4.1218,4.122,4.1346,4.1347,4.1348,4.1396,4.1396,4.1397,4.1362,4.136,4.1358,4.1356,4.1403,4.1406,4.1409,0,0,0,0,0,0,0,0,0,0,0,0,0,4.1271,4.1221,4.1346,4.1336,4.1336,4.1396,4.1396,4.1397,4.1362,4.136,4.1358,4.1355,4.1402,4.1406,4.141,4.1481,0,0,4.1422,4.1424,0,0,0,0,0,0,0,0,4.1268,4.1276,4.1337,4.1337,4.1336,4.137,4.1368,4.1425,4.1363,4.1352,4.1357,4.1354,4.1394,4.1399,4.1413,4.1484,4.1486,4.1422,4.1425,4.1427,4.1428,0,0,0,0,0,0,0,4.1264,4.1273,4.1366,4.1338,4.1337,4.1328,4.1333,4.1379,4.1385,4.1353,4.135,4.1357,4.1394,4.1409,4.1414,4.1486,4.1422,4.1426,4.1428,4.143,4.1616,4.1619,0,0,0,0,0,0,4.1262,4.127,4.1364,4.1367,4.1296,4.1332,4.1337,4.1362,4.1385,4.1386,4.1359,4.1355,4.1403,4.1409,4.1415,4.1499,4.1426,4.143,4.1433,4.1614,4.1617,4.162,0,0,0,0,0,0,4.1259,4.1271,4.1362,4.1318,4.1329,4.1337,4.1364,4.1364,4.1379,4.139,4.139,4.1374,4.1402,4.141,4.1465,4.15,4.1432,4.1436,4.1611,4.1615,4.1618,4.1668,0,0,0,0,0,0,4.1256,4.127,4.1298,4.1319,4.1332,4.1412,4.1366,4.1366,4.1387,4.1382,4.1404,4.1405,4.1401,4.1459,4.1469,4.1504,4.1439,4.1608,4.1613,4.1617,4.1663,4.1673,4.1682,0,0,0,0,0,4.1251,4.131,4.13,4.1311,4.1367,4.1415,4.1421,4.1416,4.139,4.1417,4.1424,4.1404,4.1496,4.1465,4.1476,4.1513,4.1605,4.1611,4.1617,4.1659,4.1671,4.1681,0,0,0,0,0,0,4.1291,4.1312,4.1301,4.1369,4.139,4.1408,4.1443,4.143,4.1458,4.1452,4.1444,4.1449,4.1507,4.1516,4.1482,4.1583,4.1546,4.1554,4.1574,4.1586,4.1595,4.159,4.1442,0,0,0,0,0,4.1308,4.1346,4.1362,4.142,4.1431,4.1436,4.1456,4.145,4.1472,4.148,4.1491,4.1511,4.1544,4.1566,4.1597,4.1666,4.1668,4.1696,4.1706,4.1713,4.1719,4.1754,4.1766,4.1638,4.1638,4.1638,0,0,4.1342,4.1359,4.1383,4.1428,4.1444,4.1482,4.1443,4.1485,4.1512,4.1486,4.1539,4.1548,4.157,4.1632,4.1659,4.1641,4.1755,4.172,4.1726,4.1728,4.1761,4.1773,4.1784,4.1642,4.1642,4.1641,0,0,4.1424,4.1442,4.149,4.1508,4.1533,4.1536,4.1548,4.1568,4.1573,4.1627,4.1607,4.164,4.1697,4.1713,4.1729,4.1818,4.18,4.1829,4.1875,4.1909,4.1919,4.1928,4.1957,4.1968,4.1835,4.1836,4.1836,0,4.1463,4.1521,4.1517,4.156,4.158,4.156,4.1608,4.1625,4.1659,4.1672,4.1652,4.1723,4.1737,4.1801,4.1823,4.1837,4.1849,4.1825,4.1918,4.1927,4.1935,4.1963,4.1974,4.1839,4.1838,4.1838,4.1838,0,4.1566,4.1606,4.1643,4.1677,4.1701,4.1747,4.1749,4.1773,4.1766,4.1771,4.1824,4.1841,4.1874,4.189,4.1883,4.1953,4.194,4.192,4.1881,4.195,4.1976,4.1987,4.1843,4.1842,4.1841,4.184,0,0,4.1672,4.1704,4.1717,4.1732,4.1759,4.1789,4.1834,4.1868,4.1888,4.1913,4.1948,4.1998,4.1979,4.1997,4.1992,4.2022,4.2089,4.1998,4.1998,4.2012,4.2164,4.2178,4.219,4.2079,4.2081,4.2082,4.2161,0,4.1753,4.1831,4.1829,4.1902,4.1937,4.192,4.1958,4.1978,4.1984,4.2014,4.202,4.2055,4.2028,4.2039,4.2068,4.2075,4.2119,4.2069,4.2109,4.211,4.2101,4.2204,4.2218,4.2292,4.2172,4.2174,4.2175,0,4.1857,4.1886,4.1962,4.1983,4.1998,4.2033,4.2063,4.2093,4.2115,4.2117,4.2138,4.2128,4.2172,4.2135,4.2194,4.216,4.2177,4.2183,4.2185,4.2186,4.2145,4.2205,4.2316,4.2326,4.2191,4.219,4.2189,0,4.1923,4.1981,4.2034,4.2047,4.2074,4.2098,4.211,4.213,4.215,4.2177,4.219,4.2221,4.2237,4.2261,4.226,4.2234,4.2319,4.2282,4.2319,4.2319,4.2335,4.2334,4.2447,4.2351,4.2351,4.2351,4.2351,0,4.2012,4.2058,4.2064,4.2095,4.2147,4.2144,4.2195,4.2204,4.2222,4.2254,4.2242,4.2272,4.2269,4.23,4.2299,4.2347,4.2355,4.2356,4.2355,4.2356,4.2355,4.2364,4.2357,4.2354,4.2353,4.2353,4.2352,0,4.2093,4.2099,4.2154,4.2176,4.2182,4.2218,4.2236,4.2265,4.2271,4.2312,4.2321,4.2329,4.2364,4.2366,4.2406,4.2406,4.2463,4.2457,4.2455,4.2453,4.2489,4.2484,4.261,4.2625,4.2522,4.2523,4.2524,0,4.2148,4.2183,4.2208,4.223,4.2243,4.2278,4.2299,4.2298,4.232,4.2348,4.2374,4.2408,4.2435,4.2492,4.25,4.2531,4.2524,4.2566,4.2528,4.2527,4.2521,4.2518,4.252,4.2572,4.2573,4.2574,4.2575,0,4.2244,4.2245,4.2276,4.2308,4.2334,4.2359,4.2382,4.24,4.2402,4.2427,4.2464,4.2485,4.2527,4.256,4.259,4.26,4.2587,4.2587,4.2597,4.2596,4.2593,4.2593,4.2472,4.2584,4.2583,4.2582,4.2582,4.2581,4.2311,4.2341,4.2364,4.2398,4.2416,4.2439,4.2467,4.2477,4.2507,4.2541,4.2539,4.2579,4.2599,4.2638,4.2652,4.2682,4.2667,4.2682,4.2685,4.2688,4.269,4.2591,4.2688,4.2687,4.2687,4.2687,4.2687,0,4.2404,4.2418,4.245,4.2483,4.2511,4.2499,4.2524,4.2547,4.2582,4.2603,4.263,4.2671,4.2704,4.2715,4.2747,4.2768,4.2763,4.2776,4.2773,4.2775,4.2703,4.269,4.278,4.278,4.278,4.278,4.278,4.278,4.2455,4.2505,4.2509,4.2567,4.258,4.2619,4.2634,4.2654,4.2671,4.2717,4.2745,4.2753,4.2769,4.2802,4.283,4.2833,4.2843,4.2859,4.2858,4.279,4.278,4.2771,4.2759,4.2862,4.2862,4.2928,4.2928,4.2929]}]]